NOAA 16 DEB

Satellite information

Favourite Embed

Satellite Type and Status

DEBRISIN ORBIT

Key statistics

Satellite NOAA 16 DEB at a glance.

Uptime

9215

Days in orbit

Revolutions

≈ 14.4

Per day

Orbit

SSO

Sun Synchronous Orbit

Inclination

98.8

Latest

Satellite identification and parameters

Extended collection of information and parameters for NOAA 16 DEB.

Object identification

Identified? True

Debris? True

Object name: NOAA 16 DEB

International designator: 2000-055CL

Object number (NORAD): 41153

Object ID (CCSDS): 41153

Country: UNITED STATES OF AMERICA (US)

Current information (Y/N): Y

RCS size: SMALL

Orbital parameters

Period: 100.264 minutes

Inclination: 98.7834 deg

SMA: 7149.171 km

Apoapsis: 782.157 km

Periapsis: 759.914 km

RAAN: 94.5627 deg

Eccentricy: 0.00155565

Argument of periapsis: 328.8681 deg

Mean anomaly: 31.1582 deg

Mean motion: 14.36214328 rev/day

Mean motion (dot): 0.00006932 rev/day2

B* drag term: 0.0023859797 1/REarth

Two-line elements (TLE)

Creation date: Dec. 14, 2025, 3:07 a.m.

Reference frame: TEME

Reference center: EARTH

Epoch: Dec. 13, 2025, 1:12 p.m. UTC

TLE line 0: 0 NOAA 16 DEB

TLE line 1: 1 41153U 00055CL 25347.55024893 .00006932 00000-0 23860-2 0 9992

TLE line 2: 2 41153 98.7834 94.5627 0015557 328.8681 31.1582 14.36214328520042

Live tracking on map

Real-time ground track for satellite NOAA 16 DEB.

In-orbit conjunctions

A list of the most updated potential collisions computed for object NOAA 16 DEB.

Target Orbit TCA Probability of collision Miss distance Type
COSMOS 1741 LEO 2025-10-04 10:55:59 0.0005669632 232.0 (m) PAYLOAD
IRIDIUM 16 LEO 2025-09-17 22:59:06 0.0001066116 843.0 (m) PAYLOAD
SL-12 R/B(AUX MOTOR) LEO 2024-11-29 03:00:43 0.0001005617 57.0 (m) ROCKET BODY

Associated space launch

The NOAA K, L and M POES satellites begin the fifth generation of improved environmental monitoring in support of NOAA missions. The instrument payload has significant improvements and additions/deletions. The instrument changes have effected the spacecraft subsystems and data formats.

NOAA 16 DEB was lifted into orbit during the mission ‘Titan II SLV | NOAA 16’, on board a Titan II SLV space rocket.

The launch took place on Sept. 21, 2000, 10:22 a.m. from Space Launch Complex 4W.

For more information about the launch, click the button.

Launch to space Titan II SLV | NOAA 16
Titan II SLV | NOAA 16

Agency: N/A

Status: Launch Successful

Launch date: Sept. 21, 2000, 10:22 a.m. UTC

Rocket: Titan II SLV

Launch pad: Space Launch Complex 4W

Location: Vandenberg SFB, CA, USA

...

Latest news about this satellite

There are no fresh news available about this satellite. Check back as we update our databases every day.


Newsletter sign-up

Weekly statistics, charts and insights to help you stay on top of the space industry.